Location: Complexul Astronomic Baia Mare
(47.6577°N, 23.5639°E)
Time: 23:54:21
(UTC+03:00)

ISS - Pass Details

Date: 01 June 2017
Orbit: 401 x 408 km, 51.6° (Epoch: 28 June)

Event Time Altitude Azimuth Distance (km) Brightness Sun altitude
Rises 00:48:53 0° 293° (WNW) 2,340 0.5 -19.9°
Reaches altitude 10° 00:50:58 10° 293° (WNW) 1,475 -0.6 -19.9°
Enters shadow 00:53:54 66° 275° (W) 450 -3.7 -20.0°
